Date,TemperatureHighF,TemperatureAvgF,TemperatureLowF,DewpointHighF,DewpointAvgF,DewpointLowF,HumidityHigh,HumidityAvg,HumidityLow,PressureMaxIn,PressureMinIn,WindSpeedMaxMPH,WindSpeedAvgMPH,GustSpeedMaxMPH,PrecipitationSumIn
2013-9-1,71.8,63.9,59.4,57.9,51.6,42.3,80,65,44,30.18,30.12,16,6,16,0.08
2013-9-2,80.4,67.0,57.4,58.4,52.2,46.9,87,62,33,30.18,30.09,13,4,13,0.08
2013-9-3,83.8,71.7,60.8,49.9,45.1,39.4,64,41,22,30.18,30.09,12,3,12,0.00
2013-9-4,87.1,73.2,65.7,52.7,45.4,41.8,59,38,24,30.24,30.15,13,2,13,0.00
2013-9-5,87.1,73.7,62.2,49.6,40.9,33.7,59,33,19,30.21,30.15,17,5,17,0.00
2013-9-6,88.0,73.6,62.1,44.8,37.1,30.8,46,28,16,30.21,30.12,15,4,15,0.00
2013-9-7,86.5,72.5,59.7,47.0,38.0,30.3,52,31,16,30.18,30.09,15,4,15,0.00
2013-9-8,86.7,72.1,59.4,42.1,37.5,32.6,44,30,19,30.09,29.97,16,5,16,0.00
2013-9-9,80.4,66.3,58.1,53.4,45.0,35.2,81,49,24,30.06,29.94,20,6,20,0.00
2013-9-10,73.4,61.8,57.7,56.7,52.2,46.0,91,73,40,30.15,30.06,15,4,15,0.35
2013-9-11,64.9,60.4,57.6,57.9,55.3,52.2,93,84,66,30.18,30.12,15,5,15,0.20
2013-9-12,62.6,58.5,55.9,59.9,56.2,53.7,96,92,85,30.21,30.12,10,3,11,0.83
2013-9-13,63.7,58.7,56.3,60.4,55.5,50.1,98,89,71,30.12,29.97,18,9,18,0.20
2013-9-14,73.8,60.3,52.0,53.5,49.6,44.0,92,71,41,30.03,29.94,13,5,13,0.87
2013-9-15,59.2,54.4,52.0,55.1,52.1,48.2,96,92,76,30.21,30.00,13,4,13,0.31
2013-9-16,58.6,54.6,51.1,55.3,52.7,50.5,98,94,79,30.18,30.06,15,9,15,0.08
2013-9-17,75.9,63.2,51.6,54.7,43.5,32.4,97,54,21,30.09,29.91,13,5,13,0.08
2013-9-18,75.7,64.7,57.2,46.0,39.2,31.8,62,40,24,29.97,29.89,22,7,22,0.00
2013-9-19,60.6,56.2,49.8,42.6,38.2,26.9,63,51,38,30.12,29.94,16,5,16,0.00
2013-9-20,66.0,56.7,49.8,49.1,44.8,40.3,88,66,46,30.12,30.03,15,8,15,0.00
2013-9-21,75.6,61.5,48.2,43.9,37.7,32.1,81,46,21,30.06,29.89,15,4,15,0.00
2013-9-22,73.0,60.5,52.7,46.6,39.0,33.7,79,47,24,29.89,29.68,20,5,20,0.00
2013-9-23,61.2,51.7,43.5,46.7,33.7,23.7,90,54,27,30.06,29.62,17,6,17,0.39
2013-9-24,67.5,55.1,42.3,31.3,26.8,21.1,46,34,24,30.09,29.91,20,7,20,0.00
2013-9-25,74.1,62.9,47.8,32.2,25.3,20.4,51,25,14,29.91,29.65,31,11,31,0.00
2013-9-26,72.9,60.7,46.2,41.1,31.9,17.5,66,37,18,29.80,29.68,20,9,20,0.00
2013-9-27,56.7,48.6,38.5,45.8,37.2,26.3,92,69,34,29.94,29.77,20,7,20,0.00
2013-9-28,62.1,46.9,33.6,32.5,22.7,17.7,79,41,25,30.09,29.94,14,6,14,0.00
2013-9-29,72.3,57.2,42.6,28.0,21.5,14.0,39,26,14,30.09,29.91,18,5,18,0.00
2013-9-30,75.6,62.3,50.4,35.2,27.7,14.0,44,27,17,29.97,29.85,15,5,15,0.00